Погода в Лабожском

Россия / Ненецкий автономный округ     67°19′54″N   52°05′35″E
темп.,
°C
ветер,
м/с
пор.,
м/с
влажн.,
%
обл.,
%
осадки,
мм/ч
давл.,
гПа
погр.,
м
6 мая, чт
чт600:00−2св7119697 0.6 998454
03:00−2ссв7109598 1.1 999390
06:00−2ссв799497 0.5 999458
09:00−1ссв6794100 0.9 1000611
12:000ссв569195 0.4 1002622
15:00+1с6686100 0.6 1004781
18:000с5679100 0.1 1006792
21:00−1с4591100 0.1 1008283
7 мая, пт
пт700:00−3ссв349668 0.0 100998
03:00−3всв359522 0.1 1010168
06:00−2в458728 0.0 1010294
09:000вюв568245 0.0 1010530
12:00+2вюв787541 0.0 1010704
15:00+4вюв81071100 0.0 1009705
18:00+1в81287100 0.6 1008280
21:00+1вюв5889100 0.6 1008164
8 мая, сб
сб800:00+2ююв3494100 0.0 100861
03:00+2ююв4595100 0.0 100878
06:00+3ююз3391100 0.0 100869
09:00+6з4683100 0.1 1010463
12:00+7зсз697810 0.0 1013713
15:00+7зсз567467 0.0 1015723
18:00+7в017869 0.1 1016169
21:00+5вюв568659 0.1 1017108
9 мая, вс
вс900:00+4вюв578694 0.0 1017100
03:00+4вюв7128441 0.0 1016187
06:00+7юв71377100 0.0 1014283
09:00+10юв91668100 0.0 1012462
12:00+13юв131955100 0.0 1009863
15:00+15юв142147100 0.0 1005762
18:00+13ю111873100 0.3 1003551
21:00+12ю111875100 1.9 1002649
10 мая, пн
пн1000:00+10ююз111770100 0.1 1003553
03:00+7ююз121672100 0.1 10051074
06:00+5юз101569100 0.1 10081423
09:00+7зюз111461100 0.2 10101598
12:00+10зюз111440100 0.1 10112492
15:00+10з111342100 0.4 10132070
18:00+9з913464 0.2 10141749
21:00+6юз455620 0.2 101460